When you browse on this site, cookies collect data to enhance your experience and personalize the content and advertising you see.
Visit our Privacy Policy to learn more. By continuing to use the site, you agree to this use of cookies and data.
  • In Hungary
  • List of Countries
  • For 7 days
  • Water Temperature
  • Satellite Maps
  • Weather Map
  • News
  • Weather Widgets
  • user-avatar
    Login

    Hourly Weather Dugga

    Today, 26 April, Friday

    Time Temperature Precipitation Wind Pressure Humidity
    00:00 +15°C° 0 mm 1 mps 722 mmHg 86%
    01:00 +14°C° 0 mm 0 mps 723 mmHg 85%
    02:00 +14°C° 0 mm 0 mps 723 mmHg 85%
    03:00 +14°C° 0 mm 0 mps 723 mmHg 86%
    04:00 +14°C° 0 mm 1 mps 723 mmHg 86%
    05:00 +15°C° 0 mm 1 mps 723 mmHg 85%
    06:00 +15°C° 0 mm 1 mps 723 mmHg 85%
    07:00 +16°C° 0 mm 1 mps 723 mmHg 84%
    08:00 +18°C° 0 mm 2 mps 724 mmHg 74%
    09:00 +20°C° 0 mm 3 mps 724 mmHg 64%
    10:00 +21°C° 0 mm 3 mps 725 mmHg 54%
    11:00 +22°C° 0 mm 4 mps 725 mmHg 52%
    12:00 +23°C° 0 mm 5 mps 725 mmHg 49%
    13:00 +23°C° 0 mm 5 mps 726 mmHg 46%
    14:00 +23°C° 0 mm 6 mps 725 mmHg 50%
    15:00 +22°C° 0 mm 6 mps 725 mmHg 54%
    16:00 +21°C° 0 mm 6 mps 725 mmHg 58%
    17:00 +19°C° 0 mm 5 mps 725 mmHg 64%
    18:00 +17°C° 0 mm 4 mps 725 mmHg 69%
    19:00 +14°C° 0 mm 3 mps 725 mmHg 75%
    20:00 +14°C° 0.2 mm 3 mps 725 mmHg 78%
    21:00 +14°C° 0.2 mm 2 mps 726 mmHg 81%
    22:00 +13°C° 0.2 mm 2 mps 726 mmHg 84%
    23:00 +13°C° 0 mm 2 mps 726 mmHg 83%

    Tomorrow, 27 April, Saturday

    Time Temperature Precipitation Wind Pressure Humidity
    00:00 +13°C° 0 mm 2 mps 726 mmHg 83%
    01:00 +13°C° 0 mm 2 mps 726 mmHg 82%
    02:00 +12°C° 0 mm 2 mps 726 mmHg 86%
    03:00 +10°C° 0 mm 2 mps 726 mmHg 89%
    04:00 +9°C° 0 mm 2 mps 726 mmHg 92%
    05:00 +10°C° 0 mm 2 mps 726 mmHg 89%
    06:00 +10°C° 0 mm 3 mps 726 mmHg 86%
    07:00 +11°C° 0 mm 3 mps 726 mmHg 82%
    08:00 +13°C° 0 mm 4 mps 727 mmHg 73%
    09:00 +14°C° 0 mm 4 mps 727 mmHg 64%
    10:00 +16°C° 0 mm 5 mps 727 mmHg 55%
    11:00 +17°C° 0 mm 5 mps 727 mmHg 52%
    12:00 +19°C° 0 mm 5 mps 727 mmHg 50%
    13:00 +19°C° 0 mm 6 mps 727 mmHg 47%
    14:00 +19°C° 0 mm 6 mps 727 mmHg 48%
    15:00 +19°C° 0 mm 6 mps 726 mmHg 48%
    16:00 +17°C° 0 mm 6 mps 726 mmHg 48%
    17:00 +16°C° 0 mm 5 mps 726 mmHg 55%
    18:00 +14°C° 0 mm 3 mps 726 mmHg 61%
    19:00 +13°C° 0 mm 2 mps 726 mmHg 67%
    20:00 +12°C° 0 mm 2 mps 726 mmHg 71%
    21:00 +11°C° 0 mm 1 mps 727 mmHg 75%
    22:00 +10°C° 0 mm 1 mps 727 mmHg 79%
    23:00 +10°C° 0 mm 1 mps 727 mmHg 80%

    Day after tomorrow, 28 April, Sunday

    Time Temperature Precipitation Wind Pressure Humidity
    00:00 +9°C° 0 mm 1 mps 726 mmHg 82%
    01:00 +8°C° 0 mm 2 mps 726 mmHg 83%
    02:00 +8°C° 0 mm 2 mps 726 mmHg 83%
    03:00 +7°C° 0 mm 2 mps 726 mmHg 84%
    04:00 +7°C° 0 mm 2 mps 725 mmHg 84%
    05:00 +8°C° 0 mm 2 mps 725 mmHg 80%
    06:00 +9°C° 0 mm 2 mps 725 mmHg 77%
    07:00 +9°C° 0 mm 2 mps 726 mmHg 73%
    08:00 +12°C° 0 mm 3 mps 726 mmHg 66%
    09:00 +14°C° 0 mm 4 mps 726 mmHg 60%
    10:00 +17°C° 0 mm 4 mps 726 mmHg 53%
    11:00 +18°C° 0 mm 4 mps 726 mmHg 50%
    12:00 +20°C° 0 mm 5 mps 726 mmHg 47%
    13:00 +21°C° 0 mm 5 mps 726 mmHg 44%
    14:00 +21°C° 0 mm 5 mps 725 mmHg 45%
    15:00 +20°C° 0 mm 5 mps 725 mmHg 46%
    16:00 +20°C° 0 mm 5 mps 724 mmHg 46%
    17:00 +18°C° 0 mm 4 mps 724 mmHg 53%
    18:00 +16°C° 0 mm 3 mps 724 mmHg 60%
    19:00 +15°C° 0 mm 1 mps 724 mmHg 66%
    20:00 +13°C° 0 mm 1 mps 724 mmHg 71%
    21:00 +12°C° 0 mm 1 mps 724 mmHg 76%
    22:00 +10°C° 0 mm 0 mps 724 mmHg 81%
    23:00 +11°C° 0 mm 1 mps 724 mmHg 82%

    29 April, Monday

    Time Temperature Precipitation Wind Pressure Humidity
    00:00 +10°C° 0 mm 1 mps 724 mmHg 83%
    01:00 +10°C° 0 mm 1 mps 724 mmHg 84%
    02:00 +10°C° 0 mm 1 mps 723 mmHg 84%
    03:00 +10°C° 0 mm 1 mps 723 mmHg 84%
    04:00 +10°C° 0 mm 1 mps 722 mmHg 84%
    05:00 +10°C° 0 mm 1 mps 723 mmHg 81%
    06:00 +11°C° 0 mm 1 mps 723 mmHg 77%
    07:00 +12°C° 0 mm 1 mps 723 mmHg 74%
    08:00 +14°C° 0 mm 1 mps 723 mmHg 65%
    09:00 +18°C° 0 mm 1 mps 723 mmHg 56%
    10:00 +19°C° 0 mm 2 mps 724 mmHg 48%
    11:00 +20°C° 0 mm 2 mps 723 mmHg 44%
    12:00 +21°C° 0 mm 2 mps 723 mmHg 40%
    13:00 +24°C° 0 mm 3 mps 723 mmHg 36%
    14:00 +24°C° 0 mm 3 mps 723 mmHg 36%
    15:00 +24°C° 0 mm 3 mps 722 mmHg 36%
    16:00 +24°C° 0 mm 3 mps 722 mmHg 36%
    17:00 +21°C° 0 mm 3 mps 722 mmHg 43%
    18:00 +19°C° 0 mm 2 mps 722 mmHg 50%
    19:00 +17°C° 0 mm 2 mps 722 mmHg 58%
    20:00 +15°C° 0 mm 1 mps 722 mmHg 62%
    21:00 +14°C° 0 mm 1 mps 722 mmHg 66%
    22:00 +12°C° 0 mm 0 mps 723 mmHg 71%
    23:00 +13°C° 0 mm 1 mps 722 mmHg 71%

    30 April, Tuesday

    Time Temperature Precipitation Wind Pressure Humidity
    00:00 +13°C° 0 mm 1 mps 722 mmHg 71%
    01:00 +13°C° 0 mm 1 mps 722 mmHg 71%
    02:00 +12°C° 0 mm 1 mps 722 mmHg 72%
    03:00 +11°C° 0 mm 0 mps 721 mmHg 73%
    04:00 +10°C° 0 mm 0 mps 721 mmHg 74%
    05:00 +11°C° 0 mm 0 mps 721 mmHg 72%
    06:00 +12°C° 0 mm 0 mps 721 mmHg 70%
    07:00 +12°C° 0 mm 0 mps 721 mmHg 68%
    08:00 +15°C° 0 mm 0 mps 722 mmHg 60%
    09:00 +19°C° 0 mm 1 mps 722 mmHg 52%
    10:00 +22°C° 0 mm 1 mps 722 mmHg 44%
    11:00 +23°C° 0 mm 1 mps 722 mmHg 41%
    12:00 +24°C° 0 mm 1 mps 722 mmHg 39%
    13:00 +26°C° 0 mm 1 mps 722 mmHg 36%
    14:00 +26°C° 0 mm 2 mps 721 mmHg 37%
    15:00 +26°C° 0 mm 3 mps 721 mmHg 38%
    16:00 +26°C° 0 mm 4 mps 720 mmHg 38%
    17:00 +24°C° 0 mm 3 mps 720 mmHg 45%
    18:00 +21°C° 0 mm 3 mps 720 mmHg 52%
    19:00 +19°C° 0 mm 3 mps 720 mmHg 59%
    20:00 +17°C° 0.2 mm 2 mps 720 mmHg 64%
    21:00 +16°C° 0.2 mm 1 mps 721 mmHg 69%
    22:00 +14°C° 0.2 mm 1 mps 721 mmHg 74%
    23:00 +14°C° 0.2 mm 1 mps 721 mmHg 76%

    1 May, Wednesday

    Time Temperature Precipitation Wind Pressure Humidity
    00:00 +12°C° 0.2 mm 0 mps 720 mmHg 77%
    01:00 +12°C° 0.2 mm 0 mps 720 mmHg 78%
    02:00 +11°C° 0 mm 0 mps 720 mmHg 79%
    03:00 +12°C° 0 mm 1 mps 720 mmHg 80%
    04:00 +12°C° 0 mm 1 mps 719 mmHg 81%
    05:00 +12°C° 0 mm 1 mps 720 mmHg 79%
    06:00 +13°C° 0 mm 1 mps 720 mmHg 76%
    07:00 +13°C° 0 mm 1 mps 720 mmHg 74%
    08:00 +15°C° 0 mm 1 mps 720 mmHg 65%
    09:00 +17°C° 0 mm 2 mps 720 mmHg 55%
    10:00 +19°C° 0 mm 2 mps 721 mmHg 46%
    11:00 +20°C° 0 mm 3 mps 721 mmHg 45%
    12:00 +21°C° 0 mm 3 mps 721 mmHg 43%
    13:00 +22°C° 0 mm 4 mps 721 mmHg 42%
    14:00 +22°C° 0 mm 4 mps 721 mmHg 42%
    15:00 +22°C° 0 mm 4 mps 720 mmHg 42%
    16:00 +22°C° 0 mm 4 mps 720 mmHg 42%
    17:00 +20°C° 0 mm 4 mps 720 mmHg 47%
    18:00 +18°C° 0 mm 3 mps 720 mmHg 52%
    19:00 +16°C° 0 mm 2 mps 720 mmHg 57%
    20:00 +14°C° 0 mm 2 mps 720 mmHg 61%
    21:00 +13°C° 0 mm 1 mps 720 mmHg 64%
    22:00 +12°C° 0 mm 1 mps 721 mmHg 68%
    23:00 +11°C° 0 mm 1 mps 721 mmHg 68%
    Show more